Flag for Canada Weather past 2 weeks in Kugluktuk, Nunavut Territory, Canada

Now
41 °F

Mostly cloudy.


Feels Like: 34 °F
Forecast: 35 / 48 °F
Wind: 12 mph from Northwest

Location: Coppermine

Current Time: Jul 31, 2014 at 3:27:36 AM

Latest Report: Jul 31, 2014 at 3:00 AM


Visibility: 15 mi

Pressure: 30.11 "Hg

Humidity: 76%

Dew point: 34 °F

Location of KugluktukLocation

Historic Weather in Kugluktuk — Graph

°F

Kugluktuk temperature yesterday

Maximum temperature yesterday: 50 °F (at 12:00 AM)
Minimum temperature yesterday: 41 °F (at 9:00 PM)
Average temperature yesterday: 45 °F

Past Weeks' High & Low Weather Summary

 TemperatureHumidityPressure
High86 °F (Jul 23, 3:00 PM)100% (Jul 25, 4:00 AM)30.18 "Hg (Jul 25, 4:00 AM)
Low39 °F (Jul 17, 7:00 AM)31% (Jul 23, 4:00 PM)29.58 "Hg (Jul 24, 3:00 AM)
Average53 °F78%29.85 "Hg
* Reported Jul 16 2:00 AM — Jul 31 2:00 AM, Kugluktuk, Weather by CustomWeather, © 2014

Note: Actual official high and low records may vary slightly from our data, if they occured in-between our weather recording intervals... More about our weather records

Advertising

Kugluktuk weather history for previous 24 hours

 ConditionsComfort  
Time TempWeatherWind HumidityBarometerVisibility
2:00 AM
Jul 31
41 °FOvercast.12 mph81%30.09 "Hg15 mi
1:00 AM41 °FMostly cloudy.12 mph87%30.09 "Hg15 mi
12:00 AM41 °FPartly sunny.21 mph81%30.07 "Hg15 mi
11:00 PM
Jul 30
41 °FMostly cloudy.23 mph87%30.07 "Hg15 mi
10:00 PM41 °FSprinkles. More clouds than sun.25 mph87%30.05 "Hg12 mi
9:00 PM41 °FSprinkles. Low clouds.29 mph81%30.06 "Hg8 mi
8:00 PM43 °FLight rain. Fog.25 mph87%30.06 "Hg8 mi
7:00 PM45 °FLight rain. Fog.21 mph87%30.04 "Hg10 mi
6:00 PM45 °FLight rain. Fog.21 mph87%30.03 "Hg10 mi
5:00 PM45 °FLight rain. Fog.21 mph93%30.03 "Hg7 mi
4:00 PM45 °FLight rain. Fog.21 mph100%30.02 "Hg10 mi
3:00 PM45 °FLight rain. Fog.21 mph100%30.01 "Hg6 mi
2:00 PM46 °FLight rain. Fog.22 mph93%30.00 "Hg6 mi
1:00 PM46 °FLight rain. Fog.24 mph93%29.99 "Hg7 mi
12:00 PM45 °FLight rain. Fog.17 mph100%30.00 "Hg6 mi
11:00 AM45 °FLight rain. Fog.16 mph100%30.01 "Hg5 mi
10:00 AM46 °FLight rain. Fog.16 mph87%30.04 "Hg5 mi
9:00 AM45 °FLight rain. Fog.16 mph100%30.02 "Hg5 mi
8:00 AM46 °FLight rain. Fog.14 mph93%30.03 "Hg5 mi
7:00 AM46 °FLight rain. Mostly cloudy.12 mph93%30.05 "Hg8 mi
6:47 AMN/ALight rain.12 mphN/AN/A8 mi
6:00 AM45 °FScattered showers. Low clouds.16 mph93%30.06 "Hg12 mi
5:00 AM46 °FLight rain. Mostly cloudy.12 mph87%30.08 "Hg10 mi
4:00 AM46 °FScattered showers. Mostly cloudy.12 mph87%30.08 "Hg10 mi
3:53 AMN/AScattered showers.13 mphN/AN/A10 mi
3:00 AM45 °FLight rain. Mostly cloudy.12 mph93%30.09 "Hg8 mi
Weather by CustomWeather, © 2014

See weather overviewHow to use our weather pages